Overview Statistics Trail Chart Weather Telemetry Raw packets
 

This is the latest recevied weather packets stored in our database for station/object 2E1HJE-10. If no packets are shown the sender has not sent any weather packets the latest 10 day(s).

<< 1 2 3 4 5 6 >>
Time Temp. Humidity Pressure Rain* Wind** Luminosity Snow
1788569307 14.44° C 78% 1019.4 hPa 0 mm - - -
1788568707 14.44° C 78% 1019.4 hPa 0 mm - - -
1788568107 14.44° C 78% 1019.4 hPa 0 mm - - -
1788567507 14.44° C 78% 1019.4 hPa 0 mm - - -
1788566909 15° C 78% 1019.4 hPa 0 mm - - -
1788566307 15° C 76% 1018.9 hPa 0 mm - - -
1788565707 15° C 76% 1018.9 hPa 0 mm - - -
1788565108 15° C 76% 1018.9 hPa 0 mm - - -
1788564507 15° C 76% 1018.9 hPa 0 mm - - -
1788563907 15.56° C 76% 1019.1 hPa 0 mm - - -
1788563307 15.56° C 76% 1019.1 hPa 0 mm - - -
1788562707 15.56° C 73% 1018.6 hPa 0 mm - - -
1788562123 15.56° C 73% 1018.6 hPa 0 mm - - -
1788560908 16.11° C 73% 1018.6 hPa 0 mm - - -
1788560307 15.56° C 73% 1018.7 hPa 0 mm - - -
1788557307 16.67° C 66% 1018.1 hPa 0 mm - - -
1788556708 16.67° C 69% 1018.2 hPa 0 mm - - -
1788556107 16.67° C 69% 1018.2 hPa 0 mm - - -
1788554907 16.67° C 63% 1017.5 hPa 0 mm - - -
1788553707 17.22° C 63% 1017.5 hPa 0 mm - - -
1788550108 17.78° C 59% 1016.8 hPa 0 mm - - -
1788549507 17.78° C 59% 1016.8 hPa 0 mm - - -
1788547707 18.33° C 55% 1015.8 hPa 0 mm - - -
1788547107 18.89° C 55% 1015.8 hPa 0 mm - - -
1788545907 18.33° C 53% 1016.1 hPa 0 mm - - -

* Rain latest hour (hover to see other rain measurements)
** Current wind speed in m/s (hover to see current wind gust speed)